George, South Africa

12:23 AM SAST on March 26, 2017 (GMT +0200)
George

Weather History for FAGG - November, 2014

Change the Weather History Date:

Tuesday, November 11, 2014

  Actual Average Record
Temperature  
Mean Temperature 64 °F -  
Max Temperature 75 °F 70 °F 89 °F (1999)
Min Temperature 54 °F 54 °F 46 °F (2007)
Growing Degree Days 14 (Base 50)    
Moisture  
Dew Point 58 °F    
Average Humidity 75    
Maximum Humidity 94    
Minimum Humidity 53    
Precipitation  
Precipitation 0.00 in - - ()
Sea Level Pressure  
Sea Level Pressure 29.84 in    
Wind  
Wind Speed 5 mph ()    
Max Wind Speed 9 mph    
Max Gust Speed -    
Visibility 7.8 miles    
Events Rain    
Averages and records for this station are not official NWS values.
T = Trace of Precipitation, MM = Missing Value Source: Averaged Metar Reports

Daily Weather History Graph

Daily Weather History Graph

Search for Another Location

Airport or City:

Trip Planner

Search our weather history database for the weather conditions in past years. The results will help you decide how hot, cold, wet, or windy it might be!

Date:

Astronomy

Nov. 11, 2014 Rise Set
Actual Time 5:21 AM SAST 7:08 PM SAST
Civil Twilight 4:54 AM SAST 7:35 PM SAST
Nautical Twilight 4:21 AM SAST 8:08 PM SAST
Astronomical Twilight 3:46 AM SAST 8:43 PM SAST
Moon 11:14 PM SAST (11/11) 9:08 AM SAST (11/11)
Length of Visible Light 14h 41m
Length of Day
13h 46m
Waning Gibbous, 79% of the Moon is Illuminated
Nov 11
Waning Gibbous
Nov 14
Last Quarter
Nov 22
New
Nov 29
First Quarter
Dec 6
Full

Hourly Weather History & Observations

Time (SAST) Temp. Dew Point Humidity Pressure Visibility Wind Dir Wind Speed Gust Speed Precip Events Conditions
5:00 AM 54 °F 53 °F 94% 29.93 in 12 mi East 4.6 mph - -   Scattered Clouds
5:00 AM 53.6 °F 51.8 °F 94% 29.92 in - East 4.6 mph - N/A   Clear
6:00 AM 55.4 °F 53.6 °F 94% 29.92 in - East 5.8 mph - N/A   Clear
7:00 AM 59.0 °F 53.6 °F 82% 29.92 in - Variable 2.3 mph - N/A   Clear
8:00 AM 63 °F 55 °F 68% 29.91 in 12 mi 3.5 mph - -   Scattered Clouds
8:00 AM 62.6 °F 55.4 °F 77% 29.92 in 6.2 mi ESE 4.6 mph - N/A   Partly Cloudy
9:00 AM 66.2 °F 57.2 °F 73% 29.89 in 6.2 mi Variable 3.5 mph - N/A   Partly Cloudy
10:00 AM 66.2 °F 57.2 °F 73% 29.89 in - SSE 5.8 mph - N/A   Clear
11:00 AM 67 °F 58 °F 65% 29.86 in 12 mi SSW 5.8 mph - -   Scattered Clouds
11:00 AM 68.0 °F 59.0 °F 73% 29.86 in - South 5.8 mph - N/A   Clear
12:00 PM 71.6 °F 59.0 °F 64% 29.83 in 6.2 mi Variable 3.5 mph - N/A   Partly Cloudy
1:00 PM 73.4 °F 62.6 °F 69% 29.83 in 6.2 mi SSW 4.6 mph - N/A   Partly Cloudy
2:00 PM 74 °F 62 °F 58% 29.82 in 12 mi South 9.2 mph - -   Scattered Clouds
2:00 PM 73.4 °F 60.8 °F 65% 29.80 in 6.2 mi South 9.2 mph - N/A   Partly Cloudy
3:00 PM 75.2 °F 60.8 °F 61% 29.80 in 6.2 mi South 6.9 mph - N/A   Partly Cloudy
4:00 PM 73.4 °F 59.0 °F 61% 29.80 in 6.2 mi SSW 8.1 mph - N/A   Partly Cloudy
5:00 PM 73 °F 59 °F 53% 29.80 in 12 mi SW 5.8 mph - -   Scattered Clouds
5:00 PM 73.4 °F 59.0 °F 61% 29.80 in 6.2 mi SW 4.6 mph - N/A   Partly Cloudy
6:00 PM 69.8 °F 59.0 °F 68% 29.80 in 6.2 mi South 4.6 mph - N/A   Partly Cloudy
7:00 PM 66.2 °F 59.0 °F 78% 29.80 in 6.2 mi SW 4.6 mph - N/A   Partly Cloudy
8:00 PM 63 °F 59 °F 81% 29.82 in 12 mi WNW 8.1 mph - -   Scattered Clouds
8:00 PM 62.6 °F 59.0 °F 88% 29.80 in 6.2 mi West 9.2 mph - N/A   Partly Cloudy
9:00 PM 62.6 °F 59.0 °F 88% 29.80 in 6.2 mi West 5.8 mph - N/A Rain Light Rain
10:00 PM 62.6 °F 59.0 °F 88% 29.80 in 6.2 mi West 5.8 mph - N/A   Scattered Clouds
11:00 PM 59.0 °F 57.2 °F 94% 29.77 in 3.7 mi SW 3.5 mph - N/A   Overcast